NPV7805 LIBC-LICC

Flight info

Callsign NPV7805
Flight time 0h 27m
Altitude 17000
Route CDC DCT GIMEL DCT DEDRA DCT PEKOD DCT TOCLA
Aircraft A320/M-SDE3FGHIRWY/LB1

Departure

Time 2026-04-25 20:10
Airport Crotone Sant'Anna Pythagoras Airport (LIBC)

Arrival

Time 2026-04-25 20:37
Airport Catania-Fontanarossa Airport (LICC)
Time Latitude Longitude Altitude Speed Heading
2026-04-25 19:55 38.99510 17.07788 526 ft 0 kts 258°
2026-04-25 20:07 38.99511 17.07785 526 ft 1 kts 281°
2026-04-25 20:07 38.99530 17.07800 526 ft 8 kts 56°
2026-04-25 20:07 38.99570 17.07824 526 ft 6 kts
2026-04-25 20:07 38.99633 17.07881 527 ft 18 kts 66°
2026-04-25 20:08 38.99704 17.08016 525 ft 19 kts
2026-04-25 20:08 38.99858 17.07983 526 ft 28 kts 349°
2026-04-25 20:08 39.00062 17.07931 528 ft 30 kts 349°
2026-04-25 20:08 39.00264 17.07880 529 ft 29 kts 349°
2026-04-25 20:09 39.00463 17.07831 530 ft 29 kts 349°
2026-04-25 20:09 39.00576 17.07770 531 ft 12 kts
2026-04-25 20:09 39.00555 17.07806 531 ft 17 kts 163°
2026-04-25 20:09 39.00228 17.07887 529 ft 87 kts 169°
2026-04-25 20:10 38.99410 17.08093 565 ft 146 kts 171°
2026-04-25 20:10 38.98396 17.08345 1243 ft 151 kts 171°
2026-04-25 20:10 38.97349 17.08610 1938 ft 156 kts 171°
2026-04-25 20:10 38.96247 17.08874 2515 ft 171 kts 171°
2026-04-25 20:11 38.94997 17.09143 2941 ft 193 kts 171°
2026-04-25 20:11 38.93583 17.09418 3374 ft 218 kts 171°
2026-04-25 20:11 38.91989 17.09710 3910 ft 243 kts 172°
2026-04-25 20:11 38.90232 17.10028 4482 ft 267 kts 172°
2026-04-25 20:12 38.88342 17.10364 5319 ft 279 kts 172°
2026-04-25 20:12 38.86418 17.10687 6293 ft 286 kts 175°
2026-04-25 20:12 38.84429 17.10392 7207 ft 293 kts 200°
2026-04-25 20:12 38.83199 17.09597 7860 ft 294 kts 217°
2026-04-25 20:13 38.81236 17.07186 9199 ft 297 kts 227°
2026-04-25 20:13 38.79795 17.05264 10184 ft 301 kts 227°
2026-04-25 20:13 38.78289 17.03249 10628 ft 325 kts 227°
2026-04-25 20:13 38.76684 17.01109 11288 ft 338 kts 227°
2026-04-25 20:14 38.75032 16.98918 12136 ft 344 kts 226°
2026-04-25 20:14 38.73353 16.96697 13007 ft 349 kts 226°
2026-04-25 20:14 38.71664 16.94470 13850 ft 355 kts 226°
2026-04-25 20:14 38.69928 16.92182 14607 ft 359 kts 226°
2026-04-25 20:15 38.68172 16.89869 15350 ft 364 kts 226°
2026-04-25 20:15 38.66392 16.87528 16102 ft 368 kts 226°
2026-04-25 20:15 38.64597 16.85162 16780 ft 373 kts 226°
2026-04-25 20:15 38.62786 16.82775 17024 ft 374 kts 226°
2026-04-25 20:16 38.61003 16.80431 17084 ft 362 kts 226°
2026-04-25 20:16 38.59277 16.78163 17091 ft 350 kts 226°
2026-04-25 20:16 38.57579 16.75934 17095 ft 347 kts 226°
2026-04-25 20:16 38.55894 16.73727 17097 ft 346 kts 226°
2026-04-25 20:17 38.54214 16.71527 17098 ft 346 kts 226°
2026-04-25 20:17 38.52556 16.69354 17097 ft 346 kts 226°
2026-04-25 20:17 38.50872 16.67152 17099 ft 346 kts 226°
2026-04-25 20:17 38.49186 16.64948 17103 ft 346 kts 226°
2026-04-25 20:18 38.47504 16.62749 17102 ft 346 kts 226°
2026-04-25 20:18 38.45811 16.60542 17107 ft 346 kts 225°
2026-04-25 20:18 38.44125 16.58347 17107 ft 346 kts 225°
2026-04-25 20:18 38.42460 16.56176 17105 ft 346 kts 226°
2026-04-25 20:19 38.40775 16.53976 17108 ft 346 kts 226°
2026-04-25 20:19 38.39085 16.51772 17110 ft 346 kts 225°
2026-04-25 20:19 38.37396 16.49576 17114 ft 346 kts 225°
2026-04-25 20:19 38.35711 16.47391 17111 ft 346 kts 225°
2026-04-25 20:20 38.34024 16.45204 17115 ft 346 kts 225°
2026-04-25 20:20 38.32339 16.43014 17117 ft 346 kts 225°
2026-04-25 20:20 38.30656 16.40825 17116 ft 346 kts 225°
2026-04-25 20:20 38.28997 16.38668 17121 ft 346 kts 225°
2026-04-25 20:21 38.27311 16.36480 17121 ft 346 kts 225°
2026-04-25 20:21 38.25627 16.34298 17121 ft 346 kts 225°
2026-04-25 20:21 38.23941 16.32120 17119 ft 346 kts 225°
2026-04-25 20:21 38.22253 16.29944 17124 ft 345 kts 225°
2026-04-25 20:22 38.20566 16.27768 17124 ft 345 kts 225°
2026-04-25 20:22 38.19998 16.27034 17127 ft 345 kts 225°
2026-04-25 20:22 38.17196 16.23416 17127 ft 345 kts 225°
2026-04-25 20:22 38.15514 16.21247 17130 ft 345 kts 225°
2026-04-25 20:23 38.13830 16.19078 17130 ft 345 kts 225°
2026-04-25 20:23 38.12147 16.16908 17133 ft 345 kts 225°
2026-04-25 20:23 38.10461 16.14740 17131 ft 345 kts 225°
2026-04-25 20:23 38.08778 16.12579 17126 ft 344 kts 225°
2026-04-25 20:24 38.07096 16.10417 17126 ft 344 kts 225°
2026-04-25 20:24 38.05413 16.08254 17127 ft 344 kts 225°
2026-04-25 20:24 38.03729 16.06095 17128 ft 344 kts 225°
2026-04-25 20:24 38.02049 16.03942 17128 ft 344 kts 225°
2026-04-25 20:25 38.00367 16.01783 17128 ft 344 kts 225°
2026-04-25 20:25 37.98688 15.99628 17128 ft 343 kts 225°
2026-04-25 20:25 37.97006 15.97475 17127 ft 343 kts 225°
2026-04-25 20:25 37.95324 15.95325 17126 ft 343 kts 225°
2026-04-25 20:26 37.93660 15.93199 17130 ft 343 kts 225°
2026-04-25 20:26 37.91981 15.91056 17131 ft 343 kts 225°
2026-04-25 20:26 37.90298 15.88909 17129 ft 342 kts 225°
2026-04-25 20:26 37.88590 15.86727 17122 ft 360 kts 225°
2026-04-25 20:27 37.86804 15.84446 17106 ft 366 kts 225°
2026-04-25 20:27 37.85015 15.82163 16562 ft 366 kts 225°
2026-04-25 20:27 37.83201 15.79855 15889 ft 370 kts 225°
2026-04-25 20:27 37.81380 15.77545 15373 ft 369 kts 225°
2026-04-25 20:28 37.79576 15.75257 14895 ft 367 kts 225°
2026-04-25 20:28 37.77770 15.72967 14295 ft 368 kts 225°
2026-04-25 20:28 37.75957 15.70669 13653 ft 370 kts 225°
2026-04-25 20:28 37.74141 15.68366 13058 ft 369 kts 225°
2026-04-25 20:29 37.72356 15.66103 12521 ft 366 kts 225°
2026-04-25 20:29 37.70559 15.63830 11886 ft 365 kts 225°
2026-04-25 20:29 37.68766 15.61565 11285 ft 364 kts 224°
2026-04-25 20:29 37.66990 15.59319 10869 ft 357 kts 224°
2026-04-25 20:30 37.65255 15.57121 10504 ft 350 kts 224°
2026-04-25 20:30 37.63562 15.54978 10072 ft 336 kts 224°
2026-04-25 20:30 37.61950 15.52942 9607 ft 319 kts 224°
2026-04-25 20:30 37.60414 15.51005 9148 ft 305 kts 224°
2026-04-25 20:31 37.58940 15.49150 8629 ft 295 kts 224°
2026-04-25 20:31 37.57500 15.47340 8008 ft 290 kts 225°
2026-04-25 20:31 37.56100 15.45582 7377 ft 286 kts 225°
2026-04-25 20:31 37.54677 15.43798 6784 ft 283 kts 225°
2026-04-25 20:32 37.53289 15.42057 6345 ft 280 kts 226°
2026-04-25 20:32 37.51942 15.40366 5759 ft 275 kts 226°
2026-04-25 20:32 37.50842 15.38453 5098 ft 268 kts 248°
2026-04-25 20:32 37.50195 15.36268 4431 ft 266 kts 251°
2026-04-25 20:33 37.49576 15.34092 4110 ft 261 kts 251°
2026-04-25 20:33 37.48980 15.31979 3851 ft 252 kts 251°
2026-04-25 20:33 37.48615 15.29855 3605 ft 243 kts 266°
2026-04-25 20:33 37.48574 15.29169 3527 ft 240 kts 266°
2026-04-25 20:34 37.48302 15.25737 3115 ft 230 kts 264°
2026-04-25 20:34 37.48131 15.23783 2863 ft 224 kts 264°
2026-04-25 20:34 37.47965 15.21865 2614 ft 217 kts 264°
2026-04-25 20:34 37.47805 15.20007 2364 ft 210 kts 264°
2026-04-25 20:35 37.47654 15.18224 2126 ft 200 kts 264°
2026-04-25 20:35 37.47516 15.16565 1918 ft 182 kts 264°
2026-04-25 20:35 37.47386 15.15022 1559 ft 168 kts 265°
2026-04-25 20:35 37.47270 15.13636 1317 ft 153 kts 265°
2026-04-25 20:36 37.47162 15.12351 1032 ft 143 kts 264°
2026-04-25 20:36 37.47059 15.11130 767 ft 137 kts 264°
2026-04-25 20:36 37.46960 15.09955 501 ft 133 kts 264°
2026-04-25 20:36 37.46860 15.08818 242 ft 128 kts 264°
2026-04-25 20:37 37.46770 15.07707 48 ft 125 kts 264°
2026-04-25 20:37 37.46686 15.06726 36 ft 96 kts 264°
2026-04-25 20:37 37.46634 15.06102 38 ft 53 kts 264°
2026-04-25 20:37 37.46599 15.05673 41 ft 42 kts 264°
2026-04-25 20:38 37.46617 15.05495 43 ft 17 kts 314°
2026-04-25 20:38 37.46726 15.05494 43 ft 18 kts 40°
2026-04-25 20:38 37.46760 15.05638 45 ft 17 kts 84°
2026-04-25 20:38 37.46772 15.05786 44 ft 17 kts 84°
2026-04-25 20:39 37.46785 15.05933 42 ft 17 kts 84°
2026-04-25 20:39 37.46797 15.06078 40 ft 16 kts 84°
2026-04-25 20:39 37.46817 15.06146 38 ft 6 kts 17°
2026-04-25 20:39 37.46830 15.06148 40 ft 6 kts
2026-04-25 20:40 37.46886 15.06141 39 ft 0 kts 353°